Regional Weather Roundup
Issued by NWS Wilmington, NC

Home | Current Version | Previous Version | Text Only | Print | Product List | Glossary On
Versions: 1 2 3 4 5 6 7 8 9 10 11 12 13 14 15 16 17 18 19 20 21 22 23 24 25 26 27 28 29 30 31 32 33 34 35 36 37 38 39 40 41 42 43 44 45 46 47 48 49 50
000
ASUS42 KILM 272210
RWRILM
RWRILM
REGIONAL HOURLY WEATHER ROUNDUP
NATIONAL WEATHER SERVICE WILMINGTON NC
500 PM EST THU NOV 27 2014

NOTE: "FAIR" INDICATES FEW OR NO CLOUDS BELOW 12,000 FEET WITH NO
SIGNIFICANT WEATHER AND/OR OBSTRUCTIONS TO VISIBILITY.

...............WFO WILMINGTON COUNTY WARNING AREA...............

......COASTAL NC AND SC COUNTIES......

CITY           SKY/WX    TMP DP  RH WIND       PRES   REMARKS
WILMINGTON     CLEAR     48  39  71 NW12      30.11R
SOUTHPORT      PTCLDY    50  38  63 NW10      30.12R
N MYRTLE BEACH CLEAR     50  36  58 VRB5      30.13R
MYRTLE BEACH   PTCLDY    52  34  50 NW10      30.14R

......INLAND NC AND SC COUNTIES.......

CITY           SKY/WX    TMP DP  RH WIND       PRES   REMARKS
LUMBERTON      CLEAR     48  36  63 NW5       30.14R
ELIZABETHTOWN  PTCLDY    49  37  65 NW3       30.13R
WHITEVILLE     NOT AVBL
FLORENCE       PTCLDY    49  36  61 N6        30.15R
DARLINGTON     MOCLDY    48  34  57 CALM      30.16R

....................REST OF NORTH CAROLINA......................

.........EASTERN NC.........

CITY           SKY/WX    TMP DP  RH WIND       PRES   REMARKS
CAPE HATTERAS  CLOUDY    49  43  80 N12G25    30.00R
JACKSONVILLE   MOCLDY    46  36  66 NW6       30.10R
MOREHEAD CITY  MOCLDY    48  42  80 N17       30.06R
KENANSVILLE    CLEAR     46  37  73 NW7       30.12R
NEW BERN       PTCLDY    47  37  68 NW14G20   30.09R
ELIZABETH CITY CLOUDY    45  38  76 NW8       30.06R

.........CENTRAL NC.........

CITY           SKY/WX    TMP DP  RH WIND       PRES   REMARKS
RALEIGH DURHAM PTCLDY    44  34  67 NW5       30.12R
ROCKY MOUNT    CLEAR     44  37  76 W6        30.10R
ROANOKE RAPIDS NOT AVBL
FAYETTEVILLE   CLEAR     47  35  63 NW6       30.13R
HOFFMAN        CLEAR     47  36  64 NW7       30.15R

.........WESTERN NC.........

CITY           SKY/WX    TMP DP  RH WIND       PRES   REMARKS
CHARLOTTE      MOCLDY    47  25  42 NW8       30.17R
GREENSBORO     MOCLDY    42  26  53 NW17G25   30.14R
HICKORY        NOT AVBL
BOONE          NOT AVBL
ASHEVILLE      NOT AVBL

.....................REST OF SOUTH CAROLINA.....................

.........EASTERN SC.........

CITY           SKY/WX    TMP DP  RH WIND       PRES   REMARKS
CHARLESTON     PTCLDY    52  30  43 NW13      30.17R
BEAUFORT MCAS  CLEAR     53  30  41 NW12G22   30.20R
HILTON HEAD    CLEAR     54  32  43 NW9       30.20R

.........CENTRAL SC.........

CITY           SKY/WX    TMP DP  RH WIND       PRES   REMARKS
COLUMBIA       PTCLDY    52  29  41 W10       30.17R
ORANGEBURG     CLEAR     52  27  38 NW12      30.18R
SUMTER SHAW    CLEAR     52  27  38 NW7       30.15R

.........WESTERN SC.........

CITY           SKY/WX    TMP DP  RH WIND       PRES   REMARKS
GREENVILLE     NOT AVBL
ROCK HILL      PTCLDY    46  26  45 NW9       30.17R
ANDERSON       CLEAR     46  25  43 NW15      30.23R
CLEMSON        NOT AVBL
GREENWOOD      CLEAR     49  25  39 W8        30.22R


...................COASTAL AND OFFSHORE REPORTS..................

................LOCAL PIERS AND NC RESERVE................


STATION/POSITION TIME  SKY/WX   TEMP    WIND        PRES    VSBY
                                AIR SEA DIR/SP/G
                 (UTC)          (F)     (DEG/KT/KT) (MB)    (MI)
JOHNY MRCER PIER 2200            49 60  320/ 12/ 18 1018.5R
NC RESRV MASNBRO 2100            54     220/  3     1017.0S
OCEAN CREST PIER 2200            51 57  270/ 10/ 19 1018.6R
SPRINGMAID  PIER 2200            50 56  320/  7/ 10 1020.3R


................COASTAL AND OFFSHORE BUOYS................


STATION/POSITION TIME  SKY/WX   TEMP    WIND        PRES    VSBY
                                AIR SEA DIR/SP/G
                 (UTC)          (F)     (DEG/KT/KT) (MB)    (MI)
DIMNDSHOAL 41025 2200            55     330/ 19/ 23 1014.7R
WVE H/P(F/S)=  5/10 WND WVE H/P(F/S)=  3/ 5 SWL H/P/D(F/S/D)=  3/ 90/10

CAPE LOOKOUT     2100            54     300/ 20/ 25 1015.7R
ONSLOW BAY 41036 2200            54 66  320/ 25/ 31 1017.5R
WVE H/P(F/S)=  6/ 7 WND WVE H/P(F/S)=  5/ 7 SWL H/P/D(F/S/D)=  2/200/14

5 WRITEBCH 41038 2100            50 59  330/ 21/ 27 1016.6R
MASONBORO  41110 2200               59                N/A
WVE H/P(F/S)=  3/ 3 WND WVE H/P(F/S)=  3/ 3

WILM HARBR 41108 2200               61                N/A
WVE H/P(F/S)=  6/ 7 WND WVE H/P(F/S)=  5/ 7

27WRITEBCH 41037 2100            53 65  320/ 21/ 25 1018.2R
FRYING PAN 41013 2200            55 71  300/ 23/ 29 1019.0R
WVE H/P(F/S)=  7/ 7 WND WVE H/P(F/S)=  7/ 7 SWL H/P/D(F/S/D)=  2/320/13

SUNST NRSH 41024 2100            54     320/ 19/ 23 1018.5R
CAPRS NRSH 41029 2100            54     340/ 14/ 17   N/A
EDISTO     41004 2200            56 72  320/ 19/ 27 1020.0R
WVE H/P(F/S)=  7/ 7 WND WVE H/P(F/S)=  7/ 7 SWL H/P/D(F/S/D)=  2/ 9



..........OFFSHORE BUOYS BEYOND 100 NM OFFSHORE...........
.....IN A TRIANGLE---HAT TO BERMUDA TO BAHAMAS TO HAT.....


STATION/POSITION TIME  SKY/WX   TEMP    WIND        PRES    VSBY
                                AIR SEA DIR/SP/G
                 (UTC)          (F)     (DEG/KT/KT) (MB)    (MI)
150E HAT   41001 NOT AVBL
W BERMUDA  41048 2122            69 74  290/  8/ 12 1015.7R
WVE H/P(F/S)=  7/ 8 WND WVE H/P(F/S)=  2/ 4 SWL H/P/D(F/S/D)=  7/300/ 8

ATLANTIC S 41049 2118            79 78  130/  8/ 12 1015.2F
WVE H/P(F/S)=  7/ 9 WND WVE H/P(F/S)=  2/ 4 SWL H/P/D(F/S/D)=  7/ 90/ 9

E BAHAMAS  41046 2106            80 81  140/  6/  8 1014.8R
WVE H/P(F/S)=  6/ 9 WND WVE H/P(F/S)=  2/ 4 SWL H/P/D(F/S/D)=  7/ 90/ 9

NE BAHAMAS 41047 2136            72 78   10/ 14/ 17 1016.1R
WVE H/P(F/S)=  6/10 WND WVE H/P(F/S)=  3/ 6 SWL H/P/D(F/S/D)=  5/100/10

120E CANVRL41010 2200            67 78  310/ 21/ 27 1020.2R
WVE H/P(F/S)=  7/ 7 WND WVE H/P(F/S)=  7/ 7 SWL H/P/D(F/S/D)=  2/150/15


END



USA.gov is the U.S. government's official web portal to all federal, state and local government web resources and services.